Probability
0 0 0 0 0 0 0 0 0 0 0 0 0 0 0 0 0 1 0 0 1 0 0 0 0 0 0 0 0 0 1 3 2 1 1 1 0 0 0 0 0 0 0
0 0 0 0 0 0 0 0 0 0 0 0 0 0 0 0 1 1 1 0 1 1 1 0 0 0 0 0 0 2 3 4 3 3 2 1 0 0 0 0 0 0 0
0 0 0 0 0 0 0 0 0 0 0 0 0 0 0 0 1 2 1 0 1 1 1 1 1 0 1 1 2 3 5 5 6 5 4 2 0 0 0 0 0 0 0
0 0 0 0 0 0 0 0 0 0 0 0 0 1 1 0 1 1 0 0 0 1 1 2 3 2 2 3 4 3 4 5 7 7 5 2 1 0 1 2 1 0 0
0 0 0 0 0 0 1 1 1 0 0 1 2 2 1 0 0 0 0 0 0 0 1 3 4 4 4 6 6 3 2 4 6 7 6 4 2 1 1 2 1 0 0
0 0 0 0 0 1 1 2 1 1 1 2 3 3 2 0 0 0 0 0 0 0 1 3 4 5 5 6 6 3 1 3 6 7 7 7 5 2 1 1 1 0 0
0 0 0 0 2 3 4 4 3 3 3 4 4 3 2 1 0 0 0 0 0 1 2 3 4 5 5 4 3 2 3 4 6 7 8 8 7 4 1 0 0 0 0
0 0 1 1 3 7 9 9 8 7 7 7 6 4 3 2 1 0 0 0 1 2 3 4 4 4 3 2 2 3 6 7 6 5 6 7 7 4 2 1 0 0 0
0 0 2 2 4 7 11 12 12 11 10 9 7 5 4 3 1 0 0 1 2 3 4 4 4 4 3 3 3 3 6 7 5 4 5 6 6 4 3 1 1 1 0
1 1 2 5 6 6 8 11 11 11 10 9 7 6 5 5 3 1 1 2 3 3 3 4 4 3 3 4 4 3 4 4 3 3 4 5 5 5 4 4 4 2 1
3 3 4 6 7 6 7 8 9 10 9 7 7 6 7 7 6 4 3 3 3 3 3 3 3 2 1 3 3 2 2 2 2 3 3 4 4 4 5 7 6 3 2
5 5 5 7 8 7 7 8 9 9 8 7 6 6 7 7 7 5 3 2 2 2 3 3 3 1 0 1 1 1 1 0 1 2 2 3 3 3 5 6 5 3 2
6 6 6 7 7 8 9 9 10 10 8 6 6 6 5 5 5 4 2 1 1 1 2 3 3 1 0 0 0 0 0 0 0 1 1 1 2 3 3 4 3 2 2
8 8 8 8 9 10 11 11 10 9 8 6 5 4 3 3 3 2 1 0 0 0 2 4 3 1 1 1 0 0 1 1 1 0 0 0 1 2 2 2 2 2 2
13 14 14 14 14 15 15 13 11 9 8 7 6 5 4 3 3 2 1 0 0 0 2 4 3 3 3 2 1 1 2 2 1 0 0 0 1 1 1 0 0 0 1
21 21 20 20 21 21 19 16 13 10 10 10 10 10 10 9 7 6 4 2 2 2 2 3 4 6 6 5 4 4 4 4 2 0 0 0 0 0 0 0 0 0 0
29 27 26 25 25 25 23 17 12 10 10 11 13 15 16 17 16 14 11 9 8 8 6 4 6 9 10 9 8 8 6 5 4 1 0 0 0 0 0 0 0 0 0
32 31 30 29 29 29 27 22 15 12 12 13 15 17 20 22 22 21 18 16 16 15 11 8 10 13 13 12 11 9 7 6 5 2 0 0 0 0 0 0 0 0 0
35 34 34 33 33 33 31 26 20 16 16 15 17 18 21 24 24 24 23 21 20 18 14 12 13 14 14 12 11 9 7 7 5 2 0 0 0 0 0 0 0 0 0
38 38 38 36 35 33 30 27 24 21 19 17 17 19 20 21 22 22 23 23 22 21 18 15 14 15 16 13 11 9 8 8 5 2 2 1 1 1 1 0 0 0 0
41 42 40 38 36 32 28 26 26 24 22 20 18 19 18 16 16 16 17 20 21 21 21 18 16 17 18 16 12 10 9 8 7 4 3 3 2 2 2 1 0 0 0
43 43 42 40 38 32 24 22 25 25 25 23 21 20 16 12 10 10 10 10 13 16 18 19 18 18 19 18 14 10 10 10 9 7 4 3 3 3 3 2 1 0 0
43 43 42 41 38 31 20 15 18 24 27 26 25 22 17 12 10 11 9 7 8 10 12 16 17 17 17 17 15 12 11 11 10 8 6 3 2 2 3 3 1 0 0
42 40 40 39 37 29 17 10 13 21 27 27 25 24 21 15 12 13 13 12 12 10 8 9 11 12 12 12 12 11 10 10 9 8 7 4 2 2 2 3 2 0 0
38 35 34 35 35 28 17 9 10 20 27 26 24 24 21 17 13 13 15 16 15 13 8 6 6 5 5 5 7 7 8 8 8 9 9 7 4 3 3 3 2 1 0
35 31 28 31 33 28 18 8 9 19 26 25 23 22 19 16 13 12 15 16 15 14 11 7 4 2 2 2 3 5 5 6 8 11 12 9 6 4 3 3 3 2 1
Wind_Speed
1 2 1 0 1 2 2 2 1 0 1 2 2 2 1 1 2 2 3 8 7 7 7 8 8 8 8 9 9 9 9 9 8 9 9 9 9 9 9 9 9 8 8
1 1 2 1 1 1 0 1 1 1 1 1 2 1 2 2 2 3 3 6 9 8 8 8 8 8 9 9 10 10 10 10 9 9 8 8 8 8 8 8 8 8 7
2 2 1 2 1 1 2 2 1 2 2 2 2 2 3 3 2 3 4 3 5 10 10 8 8 8 8 9 9 9 9 10 9 9 9 9 9 9 8 8 8 8 8
3 3 2 2 1 2 2 2 3 2 2 2 2 2 2 2 2 3 3 3 3 3 8 10 8 8 8 8 8 9 9 10 10 10 10 10 10 10 10 9 9 9 8
4 4 2 1 3 2 2 3 0 2 2 2 3 2 3 2 2 3 3 3 3 4 3 7 9 8 9 9 9 9 9 10 11 11 11 12 11 10 10 10 10 9 9
4 4 3 3 4 2 2 1 1 2 3 3 4 2 3 2 2 2 3 3 3 4 4 3 5 7 10 9 8 8 9 9 10 10 11 11 11 11 11 11 11 10 10
4 4 3 3 4 3 2 3 3 3 3 2 3 3 3 4 2 2 2 2 2 3 3 3 3 2 4 9 9 8 8 9 9 10 11 11 11 11 11 12 12 11 11
4 5 4 4 4 3 3 3 3 3 2 1 3 3 2 3 4 2 2 3 3 2 3 3 3 3 3 3 5 7 7 7 7 8 9 10 11 11 11 11 11 11 12
4 4 4 4 3 4 3 3 3 3 3 2 2 3 3 1 1 2 2 2 2 2 3 2 3 3 4 3 3 6 6 5 6 7 8 8 9 9 10 10 11 11 11
5 5 5 4 4 4 2 4 2 3 4 3 2 3 3 3 3 2 3 2 2 3 3 3 2 3 3 3 3 2 5 5 6 6 7 7 8 9 9 10 10 10 10
5 5 5 4 4 4 3 4 3 4 4 4 3 3 3 3 5 4 3 2 2 2 2 3 3 2 3 3 3 3 5 5 5 6 6 7 7 7 8 9 10 9 9
5 6 5 5 5 4 3 4 4 5 4 4 4 4 4 3 3 3 4 3 3 2 2 2 3 2 3 3 2 4 4 5 5 5 5 6 6 6 7 8 9 9 9
5 5 5 5 4 4 4 4 5 5 5 5 5 4 4 4 4 4 4 4 4 3 2 3 3 2 3 2 2 4 5 5 5 5 5 5 5 5 5 6 6 7 7
5 4 5 5 5 5 5 5 5 5 5 5 6 5 5 4 4 4 4 4 4 4 3 2 2 3 2 2 1 4 3 5 5 4 5 5 5 5 5 5 5 5 6
5 6 6 6 6 5 5 5 5 5 5 6 5 6 6 4 4 4 4 4 5 5 3 2 3 2 2 2 1 4 3 4 5 5 5 4 4 4 4 4 4 4 4
6 6 7 7 6 6 6 6 6 5 5 5 5 5 5 5 4 4 4 4 5 5 5 2 2 2 2 3 2 3 3 5 7 7 6 5 5 4 4 4 4 4 4
8 8 7 7 7 7 6 6 7 6 6 6 6 6 6 5 4 4 4 4 4 5 5 4 3 2 2 4 2 4 4 5 4 7 6 6 5 5 5 4 4 4 4
9 8 8 8 8 8 7 7 8 7 7 7 7 6 6 5 5 5 4 5 4 4 6 5 4 3 3 3 3 4 4 4 3 5 6 6 6 5 5 5 4 4 4
8 8 8 8 8 7 7 7 7 7 7 7 7 7 7 6 6 4 5 5 5 5 4 5 4 3 3 2 3 4 4 3 4 4 6 7 6 6 6 5 5 4 4
9 8 8 8 8 7 7 7 7 7 7 7 7 7 7 6 6 5 5 5 5 5 4 5 4 4 3 3 3 4 3 2 3 2 1 2 5 8 8 7 6 5 5
9 8 8 8 8 7 6 6 7 7 6 6 6 6 6 4 3 4 4 4 4 5 5 5 5 4 3 2 3 3 3 3 2 2 2 3 3 3 5 7 7 5 5
8 8 9 8 8 6 4 5 6 6 5 6 6 6 5 5 4 4 3 3 4 6 6 5 5 4 4 4 3 4 4 4 3 1 3 3 3 3 2 2 4 4 4
7 8 8 8 8 6 6 6 6 6 6 5 5 6 5 3 5 5 5 6 5 4 5 7 6 5 4 3 3 5 4 5 5 2 3 4 3 4 3 1 6 6 5
6 7 7 8 7 7 8 8 7 8 6 5 6 6 5 5 4 4 5 5 5 4 5 6 5 5 4 3 4 5 5 5 6 4 3 5 4 4 4 2 6 6 6
5 6 6 7 7 7 8 9 8 6 5 6 7 6 6 6 3 3 5 5 4 4 3 2 2 2 2 3 4 5 4 5 5 3 3 4 4 4 4 4 4 8 8
5 5 5 6 7 7 8 9 9 6 6 6 5 6 6 5 5 5 6 5 5 4 3 3 4 6 6 6 6 6 5 5 5 4 2 3 4 3 4 3 2 3 4
Wind_Direction
172 152 153 175 195 134 170 191 205 137 239 221 235 205 227 242 245 233 157 166 191 209 220 224 224 222 220 219 218 219 218 217 217 218 219 219 223 229 235 236 233 233 236
171 194 181 186 204 196 154 227 207 205 243 274 265 263 254 238 219 245 237 176 187 202 216 224 228 228 225 224 223 223 222 220 219 218 218 220 225 230 234 234 231 231 233
179 221 204 214 198 193 195 225 237 252 239 237 257 267 253 248 243 245 251 248 201 194 205 218 226 228 227 228 226 225 223 221 222 220 221 223 227 230 234 234 234 233 235
212 236 223 219 217 229 220 214 233 258 272 274 264 262 254 223 233 234 233 231 245 228 196 201 218 225 227 229 228 228 225 221 221 220 221 224 226 225 227 232 238 239 240
217 236 238 227 235 232 234 253 163 273 266 278 260 231 249 231 233 228 234 235 230 246 245 178 199 216 225 228 229 231 229 226 224 222 223 225 225 224 224 229 235 239 241
223 243 225 217 242 238 239 258 264 252 264 260 273 271 248 230 236 240 245 227 226 235 242 240 209 203 209 218 224 231 233 230 226 225 227 227 226 224 224 227 231 237 240
229 239 255 221 238 233 243 244 248 229 242 256 264 248 214 215 229 225 238 256 236 234 228 223 235 237 199 197 210 224 232 233 227 225 230 228 227 227 227 228 232 236 238
235 228 234 240 229 225 230 243 254 276 273 248 278 281 243 195 207 214 220 226 256 242 229 217 218 217 243 213 171 197 220 229 229 229 230 228 226 226 228 231 232 234 237
236 252 245 256 255 249 225 236 240 245 266 258 259 286 295 299 305 188 225 230 243 256 243 234 223 220 229 230 202 178 195 217 230 237 240 238 230 228 231 235 235 235 235
234 235 239 245 251 259 241 243 222 253 256 264 244 255 281 315 290 271 225 218 226 240 259 260 235 205 219 221 196 178 186 210 226 236 241 243 241 237 236 237 239 239 235
232 237 237 238 238 250 252 264 251 252 250 260 264 249 243 235 250 269 279 275 249 234 239 248 250 238 227 224 219 179 180 206 220 230 239 245 247 244 243 241 240 242 241
221 224 230 235 241 249 242 245 247 235 251 264 272 268 258 254 249 258 266 262 265 255 245 259 253 240 239 239 210 136 177 209 222 230 238 245 247 244 245 246 248 248 249
222 216 228 226 239 245 248 245 239 251 241 243 249 258 264 264 269 268 273 277 276 264 237 234 236 248 248 245 174 166 191 207 220 227 232 236 242 244 249 251 254 255 258
234 218 220 227 233 237 241 237 247 239 237 244 249 255 262 262 265 265 273 280 277 264 236 242 257 247 256 252 136 216 205 187 202 215 225 232 236 238 242 250 255 260 259
228 217 221 225 230 232 238 239 248 250 243 244 246 234 247 250 251 260 261 265 275 283 278 236 245 255 255 256 180 241 240 167 192 207 219 229 236 236 238 241 246 253 256
231 229 225 227 227 226 229 238 245 239 244 242 251 261 258 258 258 255 254 255 258 271 282 290 274 279 312 286 197 258 252 179 200 204 210 219 228 232 232 234 238 243 249
227 228 229 229 230 229 228 231 247 242 245 245 246 242 243 260 263 265 259 258 254 258 267 274 271 268 270 277 258 261 251 244 200 186 202 214 221 227 230 231 231 237 243
225 225 228 231 234 232 231 232 240 241 243 245 243 241 241 237 238 258 265 263 264 263 261 270 274 264 251 256 256 265 267 263 267 159 188 210 218 222 225 228 227 232 241
222 225 225 227 232 233 233 235 240 244 247 248 244 240 240 242 245 248 255 261 261 255 255 261 264 270 260 257 254 249 253 263 267 176 184 195 205 212 215 218 223 228 235
219 222 224 225 228 232 235 237 238 242 245 249 249 245 241 241 242 242 243 248 259 266 256 258 260 255 250 244 254 259 249 232 270 277 243 205 191 199 206 208 212 218 226
220 219 222 224 228 228 231 233 237 235 238 245 246 245 241 237 259 263 268 258 255 258 257 254 257 258 257 260 262 269 271 267 234 274 272 246 217 221 205 201 204 209 218
222 220 222 224 225 227 196 207 235 242 240 244 249 249 243 217 210 227 257 277 283 263 267 267 261 265 270 268 277 278 279 277 270 237 279 273 267 262 253 238 159 177 208
220 222 223 224 226 217 190 193 212 237 240 242 247 249 253 229 208 221 210 217 237 253 261 272 276 277 275 281 282 272 274 284 292 297 280 274 267 269 261 197 154 174 201
224 225 226 226 228 213 188 194 207 225 234 237 243 243 242 241 233 234 240 234 233 232 240 246 261 271 278 288 268 266 268 259 254 243 248 270 266 267 272 245 166 186 205
229 231 230 230 228 217 192 192 206 223 224 235 239 237 234 232 188 211 233 234 233 230 212 201 251 267 313 287 284 271 263 263 263 252 239 272 275 276 270 255 189 189 205
231 235 233 232 232 226 192 190 205 228 222 228 228 227 215 217 186 202 229 230 231 235 237 204 212 221 227 223 225 250 267 268 272 264 206 263 274 277 272 256 252 217 215